Content
SEND FEEDBACK

Daily
Averages
Monthly
Summary
Malaysia

ALOR SETAR, MALAYSIA


Home > Asia > Malaysia
Elevation: 13 feet     Latitude: 06 11N     Longitude: 100 24E

WEATHER
 
SELECT A DAY
Number of Records: 95,162;   Date Range: 6/24/00 - 12/18/14
 
SHARE

PRINT THIS DATA

[ ← Previous Day ]
WEATHER ALMANAC - JANUARY 1, 2013
[ Next Day → ]
[ °C ]   °F
Weather ElementAverageHighLow
Temperature79 °F84.2 °F (1:00 pm)75.2 °F (1:00 am)
Dewpoint74.8 °F77 °F (12:00 pm)73.4 °F (1:00 am)
Humidity87.4 %94 % (1:00 am)79 % (1:00 pm)
Barometer29.79 in29.86 in (10:00 am)29.74 in (4:00 am)
Wind Speed4.9 mph9.2 mph (3:00 pm)
Weather ElementAverage
Visibility6.2 mi
Wind DirectionENE (53.5 °)

Weather ElementTotal
Precipitation---
Cooling Degree Days14.7 (Base 65)
Growing Degree Days29.7 (Base 50)
Averaged from 23 records on January 1, 2013
WEATHER CONDITIONS BREAKOUT
WIND DIRECTION BREAKOUT
WEATHER BY HOUR - JANUARY 1, 2013
[ °C ]   °F
Local TimeTemperatureDewpointHumidityBarometerVisibilityWind DirectionWind SpeedGust SpeedPrecipitationEventsConditions
1:00 AM75.2 °F73.4 °F94 %29.80 in6.2 miNE (40°)3.5 mphRainLight Rain
2:00 AM75.2 °F73.4 °F94 %29.80 in6.2 miNNE (30°)3.5 mphRainLight Rain
3:00 AM75.2 °F73.4 °F94 %29.77 in6.2 miNNE (20°)2.3 mphRainLight Rain
4:00 AM75.2 °F73.4 °F94 %29.74 in6.2 miNNE (20°)2.3 mphMostly Cloudy
5:00 AM75.2 °F73.4 °F94 %29.77 in6.2 miNE (40°)1.2 mphMostly Cloudy
6:00 AM75.2 °F73.4 °F94 %29.77 in6.2 miSouth (190°)1.2 mphOvercast
7:00 AM75.2 °F73.4 °F94 %29.77 in6.2 miENE (70°)3.5 mphRainLight Rain
8:00 AM77.0 °F73.4 °F89 %29.80 in6.2 miNE (50°)5.8 mphOvercast
9:00 AM77.0 °F73.4 °F89 %29.83 in6.2 miNE (40°)4.6 mphOvercast
10:00 AM78.8 °F73.4 °F83 %29.86 in6.2 miNE (50°)4.6 mphMostly Cloudy
11:00 AM80.6 °F75.2 °F84 %29.86 in6.2 miNE (50°)3.5 mphRainLight Rain
12:00 PM82.4 °F77.0 °F84 %29.83 in6.2 miNE (50°)3.5 mphMostly Cloudy
1:00 PM84.2 °F77.0 °F79 %29.80 in6.2 miNE (50°)8.1 mphMostly Cloudy
2:00 PM84.2 °F77.0 °F79 %29.80 in6.2 miENE (60°)8.1 mphRainLight Rain
3:00 PM84.2 °F77.0 °F79 %29.77 in6.2 miENE (60°)9.2 mphMostly Cloudy
4:00 PM82.4 °F77.0 °F84 %29.74 in6.2 miNE (50°)9.2 mphMostly Cloudy
5:00 PM82.4 °F75.2 °F79 %29.74 in6.2 miNE (50°)8.1 mphMostly Cloudy
6:00 PM80.6 °F75.2 °F84 %29.74 in6.2 miENE (60°)8.1 mphRainLight Rain
7:00 PM80.6 °F75.2 °F84 %29.74 in6.2 miNE (40°)5.8 mphMostly Cloudy
8:00 PM78.8 °F75.2 °F89 %29.74 in6.2 miNE (50°)5.8 mphMostly Cloudy
9:00 PM78.8 °F75.2 °F89 %29.77 in6.2 miENE (60°)4.6 mphMostly Cloudy
10:00 PM78.8 °F75.2 °F89 %29.80 in6.2 miENE (60°)4.6 mphMostly Cloudy
11:00 PM78.8 °F75.2 °F89 %29.83 in6.2 miNE (40°)1.2 mphMostly Cloudy
Hourly data recorded from WMKA, located miles away from Alor Setar, Malaysia







STORIES FROM OUR PARTNERS